Location: ?????
(33.2269°N, 35.2872°E)
Time: 12:25:44
(UTC+00:00)

Daily predictions for brighter satellites

Satellite Brightness Start Highest point End
(mag) Time Altitude Azimuth Time Altitude Azimuth Time Altitude Azimuth
Cosmos 2058 Rocket 3.2 15:15:45 10° S 15:20:06 82° W 15:24:28 10° N
IUS-18 SRM-1 4.4 15:09:05 10° WSW 15:21:39 40° S 15:25:10 10° ESE
YAOGAN 6 3.6 15:26:08 10° SE 15:29:08 25° ENE 15:32:09 10° NNE
NOSS 3-2 (C) 3.6 15:25:02 10° S 15:30:19 46° ESE 15:36:06 10° NE
Cosmos 1339 Rocket 4.4 15:25:58 10° S 15:31:56 64° E 15:38:00 10° NNE
Cosmos 1833 Rocket 3.2 15:34:15 10° N 15:39:29 38° ENE 15:44:40 10° SE
COSMO-SKYMED 1 2.5 15:36:06 10° NNE 15:40:26 78° E 15:44:47 10° S
Cosmos 839 Rocket 4.2 15:36:18 10° NNW 15:42:44 76° ENE 15:50:27 10° SSE
Okean-O 3.1 15:41:40 10° S 15:46:03 67° WSW 15:50:28 10° NNW
ASTEX 1 3.6 15:42:35 10° N 15:47:34 81° W 15:52:33 10° S
Unknown 3.1 15:47:27 10° NNW 15:50:30 49° NE 15:52:38 18° ESE
Cosmos 1777 Rocket 3.9 15:45:17 10° NNW 15:50:30 77° ENE 15:55:41 10° SSE
Cosmos 1605 Rocket 3.9 15:48:29 10° N 15:54:38 75° E 16:00:42 10° S
Lacrosse 5 2.9 15:51:05 10° NNW 15:55:21 27° NE 15:57:39 19° E
ATLAS 3B R/B 2.8 15:48:57 10° S 15:55:28 49° ESE 16:01:51 10° NE
Cosmos 1934 Rocket 4.5 15:49:25 10° NNW 15:55:43 67° W 16:02:01 10° S
Lacrosse 5 rocket 4.5 15:56:57 10° W 15:58:37 12° WSW 16:00:20 10° SW
Cosmos 1300 2.8 15:55:08 10° S 15:58:50 51° E 16:02:32 10° NNE
Cosmos 1727 Rocket 3.9 15:54:23 10° S 16:00:32 75° E 16:06:41 10° N
Cosmos 1763 Rocket 4.3 15:56:14 10° SSE 16:00:48 30° E 16:04:57 12° NE
Cosmos 1076 Rocket 4.1 15:57:55 10° NNE 16:01:53 34° E 16:05:48 10° SE
CENTAUR R/B 2.4 15:56:50 10° SSW 16:02:19 58° ESE 16:08:38 10° NE
CSL-04 Debris 4.2 15:57:08 10° SSE 16:02:28 59° ENE 16:07:50 10° N
Delta 2 Rocket 3.1 16:00:28 10° W 16:04:02 57° N 16:05:32 29° ENE
Cosmos 2058 3.9 16:01:18 10° NNE 16:04:48 25° ENE 16:04:51 25° E
CZ-2D R/B 3.9 16:06:30 24° ESE 16:07:59 32° ENE 16:11:28 10° N
Cosmos 1812 Rocket 3.6 16:06:31 10° S 16:10:55 81° W 16:15:23 10° N
Cosmos 2173 Rocket 4.5 16:05:54 10° NNE 16:11:30 35° ENE 16:17:01 10° SE
Cosmos 2082 Rocket 2.3 16:06:56 10° N 16:12:28 50° ENE 16:17:39 11° SE
Cosmos 1939 Rocket 3.5 16:12:09 31° E 16:12:53 34° ENE 16:16:33 10° N
BREEZE-M DEB (TANK) 3.8 16:12:09 10° SSW 16:15:31 56° SE 16:23:54 13° NE
Cosmos 1943 Rocket 3.4 16:11:28 10° SSE 16:14:17 20° ESE 16:14:17 20° ESE
Envisat 3.9 16:13:16 10° S 16:18:11 51° W 16:23:08 10° NNW
OAO 3 Rocket 3.5 16:16:17 10° W 16:21:08 62° SSW 16:23:34 29° SE
YAOGAN 1 2.5 16:17:14 10° SSE 16:21:33 86° WSW 16:25:54 10° NNW
Cosmos 1802 Rocket 4.5 16:17:00 10° NNE 16:22:51 36° ENE 16:26:13 22° SE
Cosmos 1000 Rocket 4.4 16:18:23 10° S 16:24:25 60° E 16:30:32 10° NNE
Cosmos 44 4.0 16:19:54 10° SW 16:24:50 55° WNW 16:29:32 10° NNE
CZ-3 Stage 3 1.0 16:25:47 10° W 16:30:34 55° S 16:30:35 55° S
Meteor 2-1 Rocket 4.0 16:25:39 10° S 16:31:08 79° E 16:36:42 10° N
Cosmos 1898 Rocket 4.3 16:30:29 10° N 16:34:20 32° NE 16:34:20 32° NE
In-Cosmos 22 Rocket 4.3 16:30:13 10° N 16:35:31 50° E 16:37:25 35° SE
OAO 3 Copernicus 4.3 16:31:33 10° W 16:36:37 72° N 16:37:48 51° ENE
Cosmos 2100 Rocket 3.8 16:34:25 10° N 16:40:34 69° E 16:46:40 10° SSE
Shenzhou-11 Module 3.9 16:38:30 10° NW 16:39:50 25° NW 16:39:50 25° NW
CZ-4 R/B 3.4 16:42:02 10° SSW 16:45:41 30° W 16:49:24 10° NW
Meteosat 1 Rocket2 3.7 16:43:26 10° WSW 16:46:31 35° SSW 16:46:31 35° SSW
Cosmos-2242 2.9 16:42:40 10° S 16:47:02 88° E 16:47:56 56° N
Cosmos 44 Rocket 3.9 16:42:30 10° S 16:46:08 40° SSE 16:46:08 40° SSE
Cosmos 2344 4.1 16:41:28 10° S 16:47:29 34° SE 16:47:29 34° SE
Cosmos 1461 4.2 16:49:43 10° NW 16:53:37 39° WSW 16:55:57 21° S
Cosmos 2016 Rocket 4.0 16:50:27 10° N 16:56:34 58° ENE 16:56:34 58° ENE
Gbstr 26 Del rocket 4.1 16:52:29 10° NW 16:59:05 86° NE 17:01:15 51° SE
Ariane Rocket 3.0 16:58:52 39° S 17:00:47 81° WSW 17:05:55 10° NNW
Delta 2 Rocket 4.4 17:05:24 10° WSW 17:11:03 44° S 17:11:06 44° S
SEDSat Delta rocket 4.4 17:09:51 10° WSW 17:13:08 35° SW 17:13:08 35° SW
ADEOS Rocket 3.8 17:11:40 10° NNE 17:21:33 44° S 17:25:53 10° S
Cosmos 2061 Rocket 4.3 17:28:42 10° NNW 17:34:49 62° W 17:34:51 62° W
Lacrosse 5 3.4 17:33:39 10° NW 17:36:54 33° W 17:36:54 33° W
Cosmos 2369 Rocket 4.0 17:33:30 10° SSW 17:35:28 22° SSW 17:35:28 22° SSW
ATLAS 3B R/B 4.3 17:40:38 10° WSW 17:46:19 28° NW 17:50:13 17° N
CENTAUR R/B 4.5 17:48:53 10° W 17:53:29 22° NW 17:56:59 15° N
Cosmos 1943 Rocket 4.2 17:53:55 10° SW 17:55:56 21° WSW 17:55:56 21° WSW
